Location: Maddington
(51.2000°N, 1.9167°W)
Time: 23:01:49
(UTC+00:00)

NOSS 3-2 (A) - Pass Details

Date: 18 January 2021
Orbit: 783 x 1425 km, 63.4° (Epoch: 07 March)

Event Time Altitude Azimuth Distance (km) Brightness Sun altitude
Rises 17:21:42 0° 309° (NW) 4,059 7.1 -7.4°
Reaches altitude 10° 17:25:16 10° 292° (WNW) 3,204 6.9 -7.9°
Maximum altitude 17:30:15 19° 252° (WSW) 2,726 7.2 -8.6°
Drops below altitude 10° 17:35:33 10° 213° (SSW) 3,435 7.2 -9.4°
Sets 17:39:36 0° 197° (SSW) 4,461 7.5 -10.0°
